Weather in Purnema

Russia / Arkhangel'skaya Oblast'     64°22′52″N   37°25′55″E
temp.,
°C
wind,
m/s
gust,
m/s
humid.,
%
clouds,
%
prec.,
mm/h
press.,
hPa
HPBL,
m
28 november, sun
sun2800:00−12n219482 0.0 101112
03:00−12n229644 0.0 101120
06:00−11ne269747 0.0 101085
09:00−13ne259979 0.0 101074
12:00−11ne2597100 0.1 1010167
15:00−11nne2698100 0.1 1009122
18:00−11ne3795100 0.0 1009329
21:00−10nne3895100 0.1 1009359
29 november, mon
mon2900:00−10nne398898 0.0 1010362
03:00−11nne3984100 0.0 1011223
06:00−12nnw249355 0.0 101268
09:00−13n229325 0.0 101433
12:00−12n118945 0.0 101526
15:00−12n229588 0.0 101523
18:00−13nne119779 0.0 101612
21:00−13ne2392100 0.0 101441
30 november, tue
tue3000:00−12ene3884100 0.0 1013210
03:00−11ene41380100 0.0 1010434
06:00−12ene51482100 0.0 1006499
09:00−12ene61579100 0.0 1003509
12:00−11ene61576100 0.0 999543
15:00−11ene61480100 0.0 995533
18:00−11ene61383100 0.0 992519
21:00−10ene61385100 0.0 989513
1 december, wed
wed100:00−10ene51284100 0.0 987554
03:00−9ene41191100 0.0 985559
06:00−9ne3993100 0.1 984545
09:00−8ene379593 0.5 984540
12:00−8ene269498 0.5 984479
15:00−8ene149599 0.9 984354
18:00−9ne119871 0.3 98525
21:00−10nne119776 0.3 98540
2 december, thu
thu200:00−10n1198100 0.0 98522
03:00−10nnw1197100 0.1 98520
06:00−8wnw1395100 0.4 985119
09:00−7wnw1496100 0.9 984161
12:00−6w2496100 0.4 985155
15:00−6w1397100 0.9 986105
18:00−5w019899 0.6 98790
21:00−6wsw1297100 1.2 988112